This demonstration page uses our WeatherBlox Daily Observations layout. Learn more.

Left ArrowRight Arrow

44.8408, -93.29828

Hourly Observations for September 18, 2020

Temp ( °F °C ) Dew Point ( °F °C ) Humidity (%) Winds ( mph kmh ) Pressure ( in mb ) Visibility ( mi km ) Precip ( " mm )
12:53 am 00:53 Partly Cloudy 49 9.4 39 3.9 69 69 Calm 30.36 1028 10 16 0.00 0.00
1:53 am 01:53 Mostly Clear 47 8.3 39 3.9 74 74 Calm 30.38 1029 10 16 0.00 0.00
2:53 am 02:53 Clear 45 7.2 40 4.4 83 83 Calm 30.38 1029 10 16 0.00 0.00
3:53 am 03:53 Clear 45 7.2 39 3.9 80 80 Calm 30.40 1029 10 16 0.00 0.00
4:53 am 04:53 Clear 43 6.1 38 3.3 82 82 Calm 30.41 1030 10 16 0.00 0.00
5:53 am 05:53 Clear 43 6.1 36 2.2 76 76 ENE 3 6 30.42 1030 10 16 0.00 0.00
6:53 am 06:53 Mostly Clear 43 6.1 33 0.6 68 68 E 6 9 30.44 1031 10 16 0.00 0.00
7:53 am 07:53 Mostly Sunny 45 7.2 33 0.6 63 63 ENE 5 7 30.45 1031 10 16 0.00 0.00
8:53 am 08:53 Mostly Sunny 48 8.9 30 -1.1 50 50 SSE 3 6 30.46 1032 10 16 0.00 0.00
9:53 am 09:53 Mostly Sunny 52 11.1 26 -3.3 37 37 SE 9 15 30.46 1032 10 16 0.00 0.00
10:53 am 10:53 Sunny 54 12.2 27 -2.8 35 35 ESE 12 19 30.46 1032 10 16 0.00 0.00
11:53 am 11:53 Mostly Sunny 57 13.9 27 -2.8 32 32 E 10 17 30.45 1031 10 16 0.00 0.00
12:53 pm 12:53 Mostly Sunny 58 14.4 26 -3.3 29 29 ESE 8 13 30.43 1031 10 16 0.00 0.00
1:53 pm 13:53 Mostly Sunny 60 15.6 25 -3.9 26 26 SE 8 13 30.41 1030 10 16 0.00 0.00
2:53 pm 14:53 Mostly Sunny 61 16.1 24 -4.4 24 24 Calm 30.38 1029 10 16 0.00 0.00
3:53 pm 15:53 Mostly Sunny 62 16.7 25 -3.9 24 24 E 6 9 30.37 1028 10 16 0.00 0.00
4:53 pm 16:53 Mostly Sunny 61 16.1 25 -3.9 25 25 ESE 5 7 30.34 1028 10 16 0.00 0.00
5:53 pm 17:53 Mostly Sunny 61 16.1 27 -2.8 27 27 SSE 6 9 30.33 1027 10 16 0.00 0.00
6:53 pm 18:53 Mostly Sunny 59 15 29 -1.7 32 32 SE 7 11 30.32 1027 10 16 0.00 0.00
7:53 pm 19:53 Mostly Clear 57 13.9 33 0.6 41 41 SE 6 9 30.32 1027 10 16 0.00 0.00
8:53 pm 20:53 Mostly Clear 55 12.8 35 1.7 47 47 SE 6 9 30.32 1027 10 16 0.00 0.00
9:53 pm 21:53 Clear 52 11.1 36 2.2 55 55 SSE 7 11 30.33 1027 10 16 0.00 0.00
10:53 pm 22:53 Clear 50 10 35 1.7 57 57 SSE 7 11 30.32 1027 10 16 0.00 0.00
11:53 pm 23:53 Clear 50 10 35 1.7 57 57 SE 7 11 30.32 1027 10 16 0.00 0.00

Powered by AerisWeather